Location: Unspecified
(36.9193°S, 174.7252°E)
Time: 03:13:44
(UTC+13:00)

Envisat - Pass Details

Date: 24 September 2021
Orbit: 764 x 766 km, 98.2° (Epoch: 20 October)

Event Time Altitude Azimuth Distance (km) Brightness Sun altitude
Rises 19:06:10 0° 192° (SSW) 3,268 6.5 -10.2°
Reaches altitude 10° 19:10:20 10° 225° (SW) 2,331 6.4 -11.0°
Maximum altitude 19:11:46 11° 241° (WSW) 2,246 6.7 -11.3°
Drops below altitude 10° 19:13:13 10° 258° (WSW) 2,323 7.1 -11.6°
Sets 19:17:21 0° 291° (WNW) 3,238 7.3 -12.4°
